| time (UTC) | temp C | wind direction | speed KPH | gust KPH | rain 1hr cm | rain 24hr cm | rain mn cm | humidity % | barometer mb |
| 20260506011504 | 13 | 136 | 3.2 | 0.0 | 0.00 | 0.00 | 0.00 | 92 | 1005.8 |
| 20260506011004 | 14 | 131 | 4.8 | 0.0 | 0.00 | 0.00 | 0.00 | 92 | 1005.6 |
| 20260506010504 | 14 | 130 | 6.4 | 0.0 | 0.00 | 0.00 | 0.00 | 92 | 1005.5 |
| 20260506010009 | 14 | 130 | 6.4 | 0.0 | 0.00 | 0.00 | 0.00 | 92 | 1005.6 |
| 20260506005503 | 14 | 131 | 8.0 | 0.0 | 0.00 | 0.00 | 0.00 | 92 | 1005.5 |
| 20260506005005 | 14 | 131 | 8.0 | 0.0 | 0.00 | 0.00 | 0.00 | 91 | 1005.6 |
| 20260506004504 | 14 | 135 | 8.0 | 0.0 | 0.00 | 0.00 | 0.00 | 91 | 1005.7 |
| 20260506004003 | 14 | 137 | 6.4 | 0.0 | 0.00 | 0.00 | 0.00 | 92 | 1005.6 |
| 20260506003503 | 14 | 143 | 4.8 | 0.0 | 0.00 | 0.00 | 0.00 | 92 | 1005.6 |
| 20260506003002 | 14 | 150 | 4.8 | 0.0 | 0.00 | 0.00 | 0.00 | 92 | 1005.5 |
| 20260506002504 | 14 | 148 | 4.8 | 0.0 | 0.00 | 0.00 | 0.00 | 92 | 1005.4 |
| 20260506002001 | 14 | 142 | 4.8 | 0.0 | 0.00 | 0.00 | 0.00 | 92 | 1005.1 |
| 20260506001502 | 14 | 140 | 4.8 | 0.0 | 0.00 | 0.00 | 0.00 | 91 | 1004.9 |
| 20260506001001 | 15 | 141 | 4.8 | 0.0 | 0.00 | 0.00 | 0.00 | 90 | 1004.9 |
| 20260506000502 | 15 | 141 | 3.2 | 0.0 | 0.00 | 0.00 | 0.00 | 90 | 1004.8 |
| 20260506000001 | 15 | 141 | 4.8 | 0.0 | 0.00 | 0.00 | 0.00 | 91 | 1004.7 |
| 20260505235500 | 15 | 141 | 4.8 | 0.0 | 0.00 | 0.00 | 0.00 | 91 | 1004.8 |
| 20260505235101 | 15 | 140 | 4.8 | 0.0 | 0.00 | 0.00 | 0.00 | 91 | 1004.8 |
| 20260505234600 | 15 | 140 | 1.6 | 0.0 | 0.00 | 0.00 | 0.00 | 90 | 1004.7 |
| 20260505234100 | 15 | 140 | 0.0 | 0.0 | 0.00 | 0.00 | 0.00 | 89 | 1004.8 |
| 20260505233600 | 15 | 140 | 0.0 | 0.0 | 0.00 | 0.00 | 0.00 | 90 | 1004.7 |
| 20260505233059 | 15 | 140 | 0.0 | 0.0 | 0.00 | 0.00 | 0.00 | 90 | 1004.7 |
| 20260505232559 | 15 | 140 | 0.0 | 0.0 | 0.00 | 0.00 | 0.00 | 90 | 1004.5 |
| 20260505232059 | 15 | 140 | 0.0 | 0.0 | 0.00 | 0.00 | 0.00 | 90 | 1004.4 |
| 20260505231559 | 15 | 140 | 1.6 | 0.0 | 0.00 | 0.00 | 0.00 | 90 | 1004.4 |
| 20260505231058 | 15 | 140 | 1.6 | 0.0 | 0.00 | 0.00 | 0.00 | 90 | 1004.3 |
| 20260505230558 | 15 | 140 | 0.0 | 0.0 | 0.00 | 0.00 | 0.00 | 90 | 1004.4 |
| 20260505230106 | 15 | 140 | 1.6 | 0.0 | 0.00 | 0.00 | 0.00 | 89 | 1004.4 |
| 20260505225558 | 15 | 140 | 1.6 | 0.0 | 0.00 | 0.00 | 0.00 | 89 | 1004.4 |
| 20260505225058 | 15 | 140 | 0.0 | 0.0 | 0.00 | 0.00 | 0.00 | 88 | 1004.3 |
| 20260505224558 | 15 | 140 | 1.6 | 0.0 | 0.00 | 0.00 | 0.00 | 88 | 1004.5 |
| 20260505224057 | 15 | 140 | 3.2 | 0.0 | 0.00 | 0.00 | 0.00 | 88 | 1004.5 |
| 20260505223557 | 15 | 140 | 4.8 | 0.0 | 0.00 | 0.00 | 0.00 | 87 | 1004.5 |
| 20260505223109 | 15 | 140 | 6.4 | 0.0 | 0.00 | 0.00 | 0.00 | 87 | 1004.4 |
| 20260505222556 | 15 | 130 | 6.4 | 0.0 | 0.00 | 0.00 | 0.00 | 87 | 1004.4 |
| 20260505222056 | 15 | 148 | 4.8 | 0.0 | 0.00 | 0.00 | 0.00 | 87 | 1004.5 |
| 20260505221557 | 15 | 159 | 4.8 | 0.0 | 0.00 | 0.00 | 0.00 | 86 | 1004.5 |
| 20260505221101 | 15 | 147 | 6.4 | 0.0 | 0.00 | 0.00 | 0.00 | 86 | 1004.5 |
| 20260505220600 | 15 | 139 | 6.4 | 0.0 | 0.00 | 0.00 | 0.00 | 85 | 1004.5 |
| 20260505220059 | 15 | 178 | 4.8 | 0.0 | 0.00 | 0.00 | 0.00 | 85 | 1005.2 |
| 20260505215555 | 15 | 224 | 4.8 | 0.0 | 0.00 | 0.00 | 0.00 | 86 | 1005.5 |
| 20260505215055 | 15 | 224 | 3.2 | 0.0 | 0.00 | 0.00 | 0.00 | 86 | 1005.3 |
| 20260505214555 | 15 | 162 | 1.6 | 0.0 | 0.00 | 0.00 | 0.00 | 87 | 1004.8 |
| 20260505214055 | 15 | 205 | 1.6 | 0.0 | 0.00 | 0.00 | 0.00 | 85 | 1004.7 |
| 20260505213559 | 15 | 234 | 4.8 | 0.0 | 0.00 | 0.00 | 0.00 | 85 | 1004.6 |
| 20260505213059 | 15 | 226 | 8.0 | 0.0 | 0.00 | 0.00 | 0.00 | 83 | 1004.6 |
| 20260505212554 | 15 | 246 | 8.0 | 0.0 | 0.00 | 0.00 | 0.00 | 83 | 1004.5 |
| 20260505212054 | 15 | 248 | 12.9 | 0.0 | 0.00 | 0.00 | 0.00 | 82 | 1004.3 |
| 20260505211554 | 14 | 292 | 22.5 | 0.0 | 0.00 | 0.00 | 0.00 | 81 | 1004.1 |
| 20260505211054 | 15 | 294 | 32.2 | 0.0 | 0.00 | 0.00 | 0.00 | 80 | 1004.0 |
| 20260505210554 | 15 | 298 | 43.5 | 0.0 | 0.00 | 0.00 | 0.00 | 80 | 1003.7 |
| 20260505210053 | 15 | 296 | 48.3 | 0.0 | 0.00 | 0.00 | 0.00 | 79 | 1003.6 |
| 20260505205554 | 16 | 288 | 46.7 | 0.0 | 0.00 | 0.00 | 0.00 | 76 | 1004.1 |
| 20260505205053 | 16 | 300 | 45.1 | 0.0 | 0.00 | 0.00 | 0.00 | 76 | 1004.2 |
| 20260505204558 | 16 | 281 | 40.2 | 0.0 | 0.00 | 0.00 | 0.00 | 73 | 1004.6 |
| 20260505204053 | 16 | 313 | 37.0 | 0.0 | 0.00 | 0.00 | 0.00 | 72 | 1003.9 |
| 20260505203553 | 17 | 303 | 35.4 | 0.0 | 0.00 | 0.00 | 0.00 | 73 | 1003.9 |
| 20260505203102 | 17 | 305 | 25.7 | 0.0 | 0.00 | 0.00 | 0.00 | 72 | 1004.0 |
| 20260505202553 | 17 | 293 | 12.9 | 0.0 | 0.00 | 0.00 | 0.00 | 74 | 1003.6 |
| 20260505202053 | 17 | 267 | 6.4 | 0.0 | 0.00 | 0.00 | 0.00 | 73 | 1003.4 |
| 20260505201552 | 17 | 238 | 4.8 | 0.0 | 0.00 | 0.00 | 0.00 | 75 | 1002.6 |
| 20260505201052 | 17 | 238 | 4.8 | 0.0 | 0.00 | 0.00 | 0.00 | 75 | 1002.7 |
| 20260505200556 | 17 | 236 | 4.8 | 0.0 | 0.00 | 0.00 | 0.00 | 77 | 1002.7 |
| 20260505200052 | 17 | 220 | 6.4 | 0.0 | 0.00 | 0.00 | 0.00 | 79 | 1002.6 |
| 20260505195553 | 16 | 221 | 6.4 | 0.0 | 0.00 | 0.00 | 0.00 | 81 | 1002.4 |
| 20260505195052 | 16 | 240 | 4.8 | 0.0 | 0.00 | 0.00 | 0.00 | 85 | 1002.5 |
| 20260505194604 | 15 | 146 | 6.4 | 0.0 | 0.00 | 0.00 | 0.00 | 86 | 1002.4 |
| 20260505194055 | 15 | 229 | 17.7 | 0.0 | 0.00 | 0.00 | 0.00 | 83 | 1002.6 |
| 20260505193551 | 15 | 269 | 30.6 | 0.0 | 0.00 | 0.00 | 0.00 | 82 | 1002.3 |
| 20260505193050 | 15 | 283 | 40.2 | 0.0 | 0.00 | 0.00 | 0.00 | 80 | 1002.5 |
| 20260505192550 | 15 | 272 | 43.5 | 0.0 | 0.00 | 0.00 | 0.00 | 79 | 1003.3 |
| 20260505192050 | 16 | 290 | 40.2 | 0.0 | 0.00 | 0.00 | 0.00 | 80 | 1003.5 |
| 20260505191551 | 16 | 275 | 33.8 | 0.0 | 0.00 | 0.00 | 0.00 | 76 | 1003.9 |
| 20260505191050 | 17 | 286 | 30.6 | 0.0 | 0.00 | 0.00 | 0.00 | 73 | 1003.3 |
| 20260505190553 | 17 | 265 | 25.7 | 0.0 | 0.00 | 0.00 | 0.00 | 71 | 1003.2 |
| 20260505190050 | 18 | 247 | 19.3 | 0.0 | 0.00 | 0.00 | 0.00 | 69 | 1003.0 |
| 20260505185554 | 19 | 232 | 25.7 | 0.0 | 0.00 | 0.00 | 0.00 | 67 | 1002.5 |
| 20260505185050 | 20 | 236 | 41.8 | 0.0 | 0.00 | 0.00 | 0.00 | 65 | 1002.2 |
| 20260505184550 | 21 | 238 | 51.5 | 0.0 | 0.00 | 0.00 | 0.00 | 59 | 1002.3 |
| 20260505184050 | 23 | 261 | 40.2 | 0.0 | 0.00 | 0.00 | 0.00 | 55 | 1002.3 |
| 20260505183552 | 24 | 240 | 27.4 | 0.0 | 0.00 | 0.00 | 0.00 | 44 | 1002.4 |
| 20260505183058 | 24 | 229 | 25.7 | 0.0 | 0.00 | 0.00 | 0.00 | 43 | 1001.6 |
| 20260505182548 | 24 | 229 | 27.4 | 0.0 | 0.00 | 0.00 | 0.00 | 43 | 1001.3 |
| 20260505182048 | 25 | 238 | 33.8 | 0.0 | 0.00 | 0.00 | 0.00 | 40 | 1001.4 |
| 20260505181548 | 25 | 229 | 32.2 | 0.0 | 0.00 | 0.00 | 0.00 | 41 | 1001.4 |
| 20260505181048 | 25 | 243 | 29.0 | 0.0 | 0.00 | 0.00 | 0.00 | 38 | 1001.5 |
| 20260505180547 | 25 | 224 | 37.0 | 0.0 | 0.00 | 0.00 | 0.00 | 39 | 1001.5 |
| 20260505180049 | 25 | 203 | 40.2 | 0.0 | 0.00 | 0.00 | 0.00 | 39 | 1001.5 |
| 20260505175547 | 25 | 222 | 33.8 | 0.0 | 0.00 | 0.00 | 0.00 | 40 | 1001.5 |
| 20260505175047 | 25 | 232 | 33.8 | 0.0 | 0.00 | 0.00 | 0.00 | 39 | 1001.5 |
| 20260505174550 | 25 | 227 | 35.4 | 0.0 | 0.00 | 0.00 | 0.00 | 37 | 1001.6 |
| 20260505174047 | 26 | 212 | 32.2 | 0.0 | 0.00 | 0.00 | 0.00 | 37 | 1001.6 |
| 20260505173545 | 26 | 205 | 32.2 | 0.0 | 0.00 | 0.00 | 0.00 | 37 | 1001.7 |
| 20260505173049 | 26 | 360 | 37.0 | 0.0 | 0.00 | 0.00 | 0.00 | 38 | 1001.7 |
| 20260505172548 | 26 | 229 | 37.0 | 0.0 | 0.00 | 0.00 | 0.00 | 38 | 1001.8 |
| 20260505172044 | 27 | 234 | 35.4 | 0.0 | 0.00 | 0.00 | 0.00 | 37 | 1001.7 |
| 20260505171543 | 26 | 219 | 33.8 | 0.0 | 0.00 | 0.00 | 0.00 | 39 | 1001.9 |
| 20260505171042 | 26 | 236 | 38.6 | 0.0 | 0.00 | 0.00 | 0.00 | 39 | 1001.9 |
| 20260505170541 | 26 | 229 | 37.0 | 0.0 | 0.00 | 0.00 | 0.00 | 41 | 1002.0 |
| 20260505170041 | 26 | 207 | 37.0 | 0.0 | 0.00 | 0.00 | 0.00 | 41 | 1002.2 |
| 20260505165539 | 26 | 55 | 40.2 | 0.0 | 0.00 | 0.00 | 0.00 | 41 | 1002.4 |
| 20260505165039 | 26 | 232 | 29.0 | 0.0 | 0.00 | 0.00 | 0.00 | 41 | 1002.3 |
| 20260505164549 | 26 | 219 | 25.7 | 0.0 | 0.00 | 0.00 | 0.00 | 44 | 1002.4 |
| 20260505164038 | 26 | 219 | 32.2 | 0.0 | 0.00 | 0.00 | 0.00 | 40 | 1002.4 |
| 20260505163534 | 26 | 221 | 33.8 | 0.0 | 0.00 | 0.00 | 0.00 | 39 | 1002.5 |
| 20260505163033 | 25 | 215 | 38.6 | 0.0 | 0.00 | 0.00 | 0.00 | 45 | 1002.6 |
| 20260505162532 | 25 | 200 | 40.2 | 0.0 | 0.00 | 0.00 | 0.00 | 43 | 1002.7 |
| 20260505162032 | 25 | 253 | 38.6 | 0.0 | 0.00 | 0.00 | 0.00 | 45 | 1002.7 |
| 20260505161531 | 25 | 211 | 35.4 | 0.0 | 0.00 | 0.00 | 0.00 | 45 | 1002.9 |
| 20260505161030 | 25 | 246 | 30.6 | 0.0 | 0.00 | 0.00 | 0.00 | 49 | 1003.0 |
| 20260505160528 | 24 | 216 | 30.6 | 0.0 | 0.00 | 0.00 | 0.00 | 48 | 1003.0 |
| 20260505153018 | 22 | 223 | 25.7 | 0.0 | 0.00 | 0.00 | 0.00 | 60 | 1003.6 |
| 20260505152517 | 21 | 250 | 24.1 | 0.0 | 0.00 | 0.00 | 0.00 | 60 | 1003.7 |
| 20260505152015 | 21 | 202 | 19.3 | 0.0 | 0.00 | 0.00 | 0.00 | 62 | 1003.9 |
| 20260505151517 | 20 | 219 | 16.1 | 0.0 | 0.00 | 0.00 | 0.00 | 64 | 1003.8 |
| 20260505151012 | 18 | 222 | 14.5 | 0.0 | 0.00 | 0.00 | 0.00 | 67 | 1004.0 |
| 20260505150511 | 18 | 228 | 14.5 | 0.0 | 0.00 | 0.00 | 0.00 | 72 | 1004.0 |
| 20260505140504 | 13 | 317 | 4.8 | 0.0 | 0.00 | 0.00 | 0.00 | 84 | 1004.6 |
| 20260505124559 | 15 | 212 | 6.4 | 0.0 | 0.00 | 0.00 | 0.00 | 74 | 1005.2 |
| 20260505124059 | 15 | 133 | 8.0 | 0.0 | 0.00 | 0.00 | 0.00 | 73 | 1004.9 |
| 20260505123557 | 15 | 138 | 9.7 | 0.0 | 0.00 | 0.00 | 0.00 | 74 | 1004.8 |
| 20260505123104 | 14 | 143 | 8.0 | 0.0 | 0.00 | 0.00 | 0.00 | 74 | 1004.8 |
| 20260505122557 | 14 | 133 | 8.0 | 0.0 | 0.00 | 0.00 | 0.00 | 74 | 1004.9 |
| 20260505122053 | 13 | 149 | 9.7 | 0.0 | 0.00 | 0.00 | 0.00 | 75 | 1004.9 |
| 20260505121553 | 13 | 150 | 9.7 | 0.0 | 0.00 | 0.00 | 0.00 | 75 | 1004.9 |
| 20260505121051 | 13 | 136 | 11.3 | 0.0 | 0.00 | 0.00 | 0.00 | 77 | 1005.0 |
| 20260505120550 | 13 | 161 | 12.9 | 0.0 | 0.00 | 0.00 | 0.00 | 78 | 1005.1 |
| 20260505120048 | 12 | 132 | 12.9 | 0.0 | 0.00 | 0.00 | 0.00 | 78 | 1005.1 |
| 20260505115548 | 12 | 131 | 12.9 | 0.0 | 0.00 | 0.00 | 0.00 | 80 | 1005.1 |
| 20260505115046 | 12 | 153 | 9.7 | 0.0 | 0.00 | 0.00 | 0.00 | 81 | 1005.4 |
| 20260505114547 | 11 | 125 | 4.8 | 0.0 | 0.00 | 0.00 | 0.00 | 85 | 1005.4 |
| 20260505114046 | 11 | 284 | 4.8 | 0.0 | 0.00 | 0.00 | 0.00 | 86 | 1005.4 |
| 20260505113545 | 11 | 284 | 4.8 | 0.0 | 0.00 | 0.00 | 0.00 | 87 | 1005.4 |
| 20260505113044 | 11 | 306 | 3.2 | 0.0 | 0.00 | 0.00 | 0.00 | 87 | 1005.4 |
| 20260505112544 | 11 | 306 | 4.8 | 0.0 | 0.00 | 0.00 | 0.00 | 87 | 1005.3 |
| 20260505112043 | 11 | 309 | 4.8 | 0.0 | 0.00 | 0.00 | 0.00 | 87 | 1005.3 |
| 20260505111551 | 11 | 309 | 4.8 | 0.0 | 0.00 | 0.00 | 0.00 | 86 | 1005.2 |
| 20260505111041 | 11 | 294 | 4.8 | 0.0 | 0.00 | 0.00 | 0.00 | 85 | 1005.0 |
| 20260505110540 | 11 | 294 | 4.8 | 0.0 | 0.00 | 0.00 | 0.00 | 86 | 1004.9 |
| 20260505102039 | 11 | 123 | 9.7 | 0.0 | 0.00 | 0.00 | 0.00 | 82 | 1004.7 |
| 20260505101539 | 11 | 128 | 8.0 | 0.0 | 0.00 | 0.00 | 0.00 | 82 | 1004.8 |
| 20260505101042 | 10 | 144 | 6.4 | 0.0 | 0.00 | 0.00 | 0.00 | 82 | 1004.9 |
| 20260505100542 | 10 | 159 | 8.0 | 0.0 | 0.00 | 0.00 | 0.00 | 81 | 1004.8 |
| 20260505100048 | 10 | 161 | 6.4 | 0.0 | 0.00 | 0.00 | 0.00 | 84 | 1004.9 |
| 20260505095541 | 10 | 157 | 0.0 | 0.0 | 0.00 | 0.00 | 0.00 | 84 | 1004.9 |
| 20260505095038 | 10 | 339 | 0.0 | 0.0 | 0.00 | 0.00 | 0.00 | 84 | 1004.8 |
| 20260505094539 | 10 | 339 | 0.0 | 0.0 | 0.00 | 0.00 | 0.00 | 83 | 1004.8 |
| 20260505094037 | 10 | 339 | 0.0 | 0.0 | 0.00 | 0.00 | 0.00 | 83 | 1004.4 |
| 20260505093538 | 10 | 339 | 0.0 | 0.0 | 0.00 | 0.00 | 0.00 | 80 | 1004.6 |
| 20260505093039 | 10 | 339 | 0.0 | 0.0 | 0.00 | 0.00 | 0.00 | 81 | 1004.7 |
| 20260505092537 | 11 | 339 | 0.0 | 0.0 | 0.00 | 0.00 | 0.00 | 81 | 1004.6 |
| 20260505092036 | 11 | 339 | 1.6 | 0.0 | 0.00 | 0.00 | 0.00 | 81 | 1004.7 |
| 20260505091551 | 11 | 339 | 3.2 | 0.0 | 0.00 | 0.00 | 0.00 | 81 | 1004.7 |
| 20260505091039 | 11 | 341 | 1.6 | 0.0 | 0.00 | 0.00 | 0.00 | 82 | 1004.6 |
| 20260505090538 | 11 | 341 | 1.6 | 0.0 | 0.00 | 0.00 | 0.00 | 82 | 1004.4 |
| 20260505090050 | 11 | 341 | 4.8 | 0.0 | 0.00 | 0.00 | 0.00 | 83 | 1004.6 |
| 20260505085534 | 11 | 338 | 6.4 | 0.0 | 0.00 | 0.00 | 0.00 | 82 | 1004.7 |
| 20260505085034 | 11 | 338 | 6.4 | 0.0 | 0.00 | 0.00 | 0.00 | 80 | 1004.8 |
| 20260505084537 | 11 | 329 | 3.2 | 0.0 | 0.00 | 0.00 | 0.00 | 80 | 1004.8 |
| 20260505084034 | 12 | 178 | 0.0 | 0.0 | 0.00 | 0.00 | 0.00 | 75 | 1004.8 |
| 20260505083534 | 12 | 178 | 1.6 | 0.0 | 0.00 | 0.00 | 0.00 | 74 | 1004.7 |
| 20260505083041 | 12 | 178 | 1.6 | 0.0 | 0.00 | 0.00 | 0.00 | 73 | 1004.9 |
| 20260505082533 | 12 | 66 | 1.6 | 0.0 | 0.00 | 0.00 | 0.00 | 70 | 1005.0 |
| 20260505082033 | 12 | 66 | 3.2 | 0.0 | 0.00 | 0.00 | 0.00 | 70 | 1005.0 |
| 20260505081550 | 12 | 308 | 8.0 | 0.0 | 0.00 | 0.00 | 0.00 | 70 | 1005.0 |
| 20260505081032 | 12 | 123 | 11.3 | 0.0 | 0.00 | 0.00 | 0.00 | 68 | 1004.9 |
| 20260505080534 | 12 | 139 | 12.9 | 0.0 | 0.00 | 0.00 | 0.00 | 67 | 1004.7 |
| 20260505080039 | 12 | 145 | 12.9 | 0.0 | 0.00 | 0.00 | 0.00 | 68 | 1004.7 |
| 20260505075529 | 11 | 132 | 11.3 | 0.0 | 0.00 | 0.00 | 0.00 | 69 | 1004.7 |
| 20260505075028 | 11 | 132 | 12.9 | 0.0 | 0.00 | 0.00 | 0.00 | 68 | 1004.7 |
| 20260505074528 | 11 | 142 | 12.9 | 0.0 | 0.00 | 0.00 | 0.00 | 69 | 1004.7 |
| 20260505074027 | 11 | 124 | 11.3 | 0.0 | 0.00 | 0.00 | 0.00 | 70 | 1004.7 |
| 20260505073527 | 11 | 135 | 11.3 | 0.0 | 0.00 | 0.00 | 0.00 | 71 | 1004.7 |
| 20260505073024 | 11 | 138 | 11.3 | 0.0 | 0.00 | 0.00 | 0.00 | 71 | 1004.7 |
| 20260505072521 | 10 | 140 | 11.3 | 0.0 | 0.00 | 0.00 | 0.00 | 72 | 1004.6 |
| 20260505072020 | 10 | 136 | 11.3 | 0.0 | 0.00 | 0.00 | 0.00 | 73 | 1004.5 |
| 20260505071525 | 10 | 134 | 11.3 | 0.0 | 0.00 | 0.00 | 0.00 | 75 | 1004.6 |
| 20260505071018 | 9 | 137 | 9.7 | 0.0 | 0.00 | 0.00 | 0.00 | 77 | 1004.6 |
| 20260505070518 | 9 | 142 | 6.4 | 0.0 | 0.00 | 0.00 | 0.00 | 76 | 1004.7 |
| 20260505070020 | 9 | 137 | 1.6 | 0.0 | 0.00 | 0.00 | 0.00 | 76 | 1004.6 |
| 20260505065516 | 9 | 198 | 1.6 | 0.0 | 0.00 | 0.00 | 0.00 | 76 | 1004.7 |
| 20260505065016 | 8 | 200 | 3.2 | 0.0 | 0.00 | 0.00 | 0.00 | 77 | 1004.7 |
| 20260505064516 | 8 | 133 | 6.4 | 0.0 | 0.00 | 0.00 | 0.00 | 77 | 1004.8 |
| 20260505064015 | 8 | 157 | 9.7 | 0.0 | 0.00 | 0.00 | 0.00 | 79 | 1004.8 |
| 20260505063515 | 8 | 144 | 9.7 | 0.0 | 0.00 | 0.00 | 0.00 | 79 | 1004.8 |
| 20260505063015 | 8 | 133 | 6.4 | 0.0 | 0.00 | 0.00 | 0.00 | 80 | 1004.8 |
| 20260505062514 | 8 | 135 | 4.8 | 0.0 | 0.00 | 0.00 | 0.00 | 80 | 1004.8 |
| 20260505062013 | 8 | 223 | 3.2 | 0.0 | 0.00 | 0.00 | 0.00 | 81 | 1004.8 |
| 20260505061524 | 8 | 223 | 1.6 | 0.0 | 0.00 | 0.00 | 0.00 | 81 | 1004.7 |
| 20260505061012 | 8 | 223 | 1.6 | 0.0 | 0.00 | 0.00 | 0.00 | 81 | 1004.8 |
| 20260505060512 | 8 | 222 | 4.8 | 0.0 | 0.00 | 0.00 | 0.00 | 79 | 1004.8 |
| 20260505060112 | 8 | 138 | 6.4 | 0.0 | 0.00 | 0.00 | 0.00 | 80 | 1004.8 |
| 20260505055511 | 8 | 138 | 8.0 | 0.0 | 0.00 | 0.00 | 0.00 | 80 | 1004.8 |
| 20260505055012 | 8 | 133 | 8.0 | 0.0 | 0.00 | 0.00 | 0.00 | 80 | 1004.8 |
| 20260505054518 | 8 | 133 | 8.0 | 0.0 | 0.00 | 0.00 | 0.00 | 80 | 1004.8 |
| 20260505054011 | 8 | 132 | 8.0 | 0.0 | 0.00 | 0.00 | 0.00 | 80 | 1004.8 |
| 20260505053511 | 8 | 134 | 9.7 | 0.0 | 0.00 | 0.00 | 0.00 | 80 | 1004.9 |
| 20260505053011 | 8 | 132 | 9.7 | 0.0 | 0.00 | 0.00 | 0.00 | 80 | 1004.9 |
| 20260505052509 | 8 | 130 | 8.0 | 0.0 | 0.00 | 0.00 | 0.00 | 80 | 1004.9 |
| 20260505052009 | 8 | 136 | 8.0 | 0.0 | 0.00 | 0.00 | 0.00 | 80 | 1004.9 |
| 20260505051509 | 8 | 134 | 8.0 | 0.0 | 0.00 | 0.00 | 0.00 | 81 | 1005.0 |
| 20260505051009 | 8 | 137 | 6.4 | 0.0 | 0.00 | 0.00 | 0.00 | 80 | 1004.9 |
| 20260505050508 | 8 | 138 | 6.4 | 0.0 | 0.00 | 0.00 | 0.00 | 80 | 1004.9 |
| 20260505041503 | 9 | 132 | 6.4 | 0.0 | 0.00 | 0.00 | 0.00 | 78 | 1004.9 |
| 20260505041002 | 9 | 131 | 6.4 | 0.0 | 0.00 | 0.00 | 0.00 | 79 | 1004.9 |
| 20260505040501 | 9 | 131 | 6.4 | 0.0 | 0.00 | 0.00 | 0.00 | 78 | 1004.9 |
| 20260505040100 | 9 | 130 | 6.4 | 0.0 | 0.00 | 0.00 | 0.00 | 78 | 1004.8 |
| 20260505035558 | 9 | 130 | 8.0 | 0.0 | 0.00 | 0.00 | 0.00 | 78 | 1004.9 |
| 20260505035100 | 10 | 131 | 8.0 | 0.0 | 0.00 | 0.00 | 0.00 | 78 | 1004.8 |
| 20260505034558 | 10 | 131 | 8.0 | 0.0 | 0.00 | 0.00 | 0.00 | 77 | 1004.8 |
| 20260505034056 | 10 | 131 | 8.0 | 0.0 | 0.00 | 0.00 | 0.00 | 77 | 1004.7 |
| 20260505033556 | 10 | 132 | 9.7 | 0.0 | 0.00 | 0.00 | 0.00 | 77 | 1004.8 |
| 20260505033056 | 10 | 132 | 8.0 | 0.0 | 0.00 | 0.00 | 0.00 | 77 | 1004.8 |
| 20260505032554 | 10 | 134 | 8.0 | 0.0 | 0.00 | 0.00 | 0.00 | 76 | 1004.8 |
| 20260505032053 | 10 | 138 | 8.0 | 0.0 | 0.00 | 0.00 | 0.00 | 75 | 1004.9 |
| 20260505031556 | 10 | 138 | 8.0 | 0.0 | 0.00 | 0.00 | 0.00 | 75 | 1004.9 |
| 20260505031052 | 10 | 140 | 8.0 | 0.0 | 0.00 | 0.00 | 0.00 | 75 | 1004.8 |
| 20260505030556 | 10 | 142 | 8.0 | 0.0 | 0.00 | 0.00 | 0.00 | 74 | 1004.8 |
| 20260505030051 | 10 | 146 | 6.4 | 0.0 | 0.00 | 0.00 | 0.00 | 74 | 1004.8 |
| 20260505025551 | 10 | 157 | 6.4 | 0.0 | 0.00 | 0.00 | 0.00 | 74 | 1004.8 |
| 20260505025050 | 11 | 161 | 6.4 | 0.0 | 0.00 | 0.00 | 0.00 | 74 | 1004.8 |
| 20260505024606 | 11 | 161 | 4.8 | 0.0 | 0.00 | 0.00 | 0.00 | 73 | 1004.7 |
| 20260505024054 | 11 | 161 | 4.8 | 0.0 | 0.00 | 0.00 | 0.00 | 75 | 1004.8 |
| 20260505023550 | 11 | 161 | 4.8 | 0.0 | 0.00 | 0.00 | 0.00 | 75 | 1004.8 |
| 20260505023050 | 11 | 161 | 4.8 | 0.0 | 0.00 | 0.00 | 0.00 | 75 | 1004.8 |
| 20260505022550 | 11 | 161 | 4.8 | 0.0 | 0.00 | 0.00 | 0.00 | 74 | 1004.9 |
| 20260505022051 | 11 | 162 | 4.8 | 0.0 | 0.00 | 0.00 | 0.00 | 74 | 1004.9 |
| 20260505021604 | 11 | 161 | 4.8 | 0.0 | 0.00 | 0.00 | 0.00 | 73 | 1004.9 |
| 20260505021051 | 12 | 161 | 4.8 | 0.0 | 0.00 | 0.00 | 0.00 | 73 | 1004.9 |
| 20260505020549 | 12 | 161 | 4.8 | 0.0 | 0.00 | 0.00 | 0.00 | 73 | 1005.0 |
| 20260505020049 | 12 | 162 | 3.2 | 0.0 | 0.00 | 0.00 | 0.00 | 70 | 1005.0 |
| 20260505015548 | 12 | 162 | 1.6 | 0.0 | 0.00 | 0.00 | 0.00 | 70 | 1005.0 |
| 20260505015048 | 12 | 162 | 0.0 | 0.0 | 0.00 | 0.00 | 0.00 | 69 | 1005.0 |
| 20260505014548 | 12 | 162 | 1.6 | 0.0 | 0.00 | 0.00 | 0.00 | 69 | 1004.9 |
| 20260505014048 | 12 | 162 | 3.2 | 0.0 | 0.00 | 0.00 | 0.00 | 69 | 1005.0 |
| 20260505013547 | 12 | 162 | 8.0 | 0.0 | 0.00 | 0.00 | 0.00 | 68 | 1005.0 |
| 20260505013046 | 12 | 142 | 9.7 | 0.0 | 0.00 | 0.00 | 0.00 | 66 | 1004.9 |
| 20260505012546 | 13 | 138 | 9.7 | 0.0 | 0.00 | 0.00 | 0.00 | 66 | 1004.9 |
| 20260505012048 | 13 | 140 | 8.0 | 0.0 | 0.00 | 0.00 | 0.00 | 65 | 1004.8 |